Station PHBP1 - 8545240 - Philadelphia, PA Image indicating link to RSS feed of recent meteorological observations for station PHBP1


Conditions at PHBP1 as of
(4:30 pm EDT)
2030 GMT on 05/30/2024:
     

Click on the graph icon in the table below to see a time series plot of the last five days of that observation.

5-day plot - Atmospheric Pressure Atmospheric Pressure (PRES):29.96 in
5-day plot - Air Temperature Air Temperature (ATMP): 74.7 °F
5-day plot - Water Temperature Water Temperature (WTMP): 73.2 °F
NOS Water Level Observation Network Water Level
Previous observations
TIME
(EDT)
5-day plot - Wind Direction
WDIR
 
5-day plot - Wind Speed
WSPD
kts
5-day plot - Wind Gust
GST
kts
5-day plot - Wave Height
WVHT
ft
5-day plot - Dominant Wave Period
DPD
sec
5-day plot - Average Wave Period
APD
sec
5-day plot - Mean Wave Direction
MWD
 
5-day plot - Atmospheric Pressure
PRES
in
5-day plot - Pressure Tendency
PTDY
in
5-day plot - Air Temperature
ATMP
°F
5-day plot - Water Temperature
WTMP
°F
5-day plot - Dew Point
DEWP
°F
5-day plot - Salinity
SAL
psu
5-day plot - Visibility
VIS
nmi
5-day plot - Tide (above MLLW)
TIDE
ft
2024-05-30 04:24 pm-------29.96- 75.7 73.2----
2024-05-30 04:18 pm-------29.96- 76.8 73.0----
2024-05-30 04:12 pm-------29.96- 75.9 73.0----
2024-05-30 04:06 pm-------29.96- 76.5 73.0----
2024-05-30 04:00 pm-------29.96-0.01 75.6 72.9----
2024-05-30 03:54 pm-------29.95- 74.8 72.9----
2024-05-30 03:48 pm-------29.95- 74.1 72.9----
2024-05-30 03:42 pm-------29.95- 73.9 72.9----
2024-05-30 03:36 pm-------29.95- 74.1 72.9----
2024-05-30 03:30 pm-------29.96- 74.5 72.9----
2024-05-30 03:24 pm-------29.96- 74.3 72.9----
2024-05-30 03:18 pm-------29.96- 73.6 72.7----
2024-05-30 03:12 pm-------29.95- 73.9 72.7----
2024-05-30 03:06 pm-------29.96- 74.5 72.7----
2024-05-30 03:00 pm-------29.96-0.02 75.0 72.7----
2024-05-30 02:54 pm-------29.96- 74.8 72.7----
2024-05-30 02:48 pm-------29.95- 74.5 72.7----
2024-05-30 02:42 pm-------29.96- 74.7 72.7----
2024-05-30 02:36 pm-------29.96- 74.5 72.7----
2024-05-30 02:30 pm-------29.96- 74.7 72.7----
2024-05-30 02:24 pm-------29.95- 73.8 72.5----
2024-05-30 02:18 pm-------29.96- 74.1 72.5----
2024-05-30 02:12 pm-------29.96- 73.9 72.5----
2024-05-30 02:06 pm-------29.96- 74.1 72.5----
2024-05-30 02:00 pm-------29.95-0.03 73.4 72.5----
2024-05-30 01:54 pm-------29.96- 73.8 72.5----
2024-05-30 01:48 pm-------29.95-- 72.5----
2024-05-30 01:42 pm-------29.95-- 72.5----
2024-05-30 01:36 pm-------29.95-- 72.5----
2024-05-30 01:30 pm-------29.95- 73.2 72.5----
2024-05-30 01:24 pm-------29.96- 74.1 72.3----
2024-05-30 01:18 pm-------29.96- 73.6 72.3----
2024-05-30 01:12 pm-------29.96- 73.2 72.3----
2024-05-30 01:06 pm-------29.96- 72.3 72.3----
2024-05-30 01:00 pm-------29.96-0.02 72.5 72.3----
2024-05-30 12:54 pm-------29.97- 72.5 72.3----
2024-05-30 12:48 pm-------29.96- 72.3 72.3----
2024-05-30 12:42 pm-------29.97- 72.1 72.3----
2024-05-30 12:36 pm-------29.97- 72.1 72.3----
2024-05-30 12:30 pm-------29.97- 71.6 72.3----
2024-05-30 12:24 pm-------29.97- 70.9 72.3----
2024-05-30 12:18 pm-------29.97- 71.8 72.3----
2024-05-30 12:12 pm-------29.97- 70.5 72.3----
2024-05-30 12:06 pm-------29.97- 70.9 72.3----
2024-05-30 12:00 pm-------29.98-0.01 70.7 72.3----
2024-05-30 11:54 am-------29.98- 70.5 72.3----
2024-05-30 11:48 am-------29.98-- 72.3----
2024-05-30 11:42 am-------29.98-- 72.3----
2024-05-30 11:36 am-------29.98-- 72.3----
2024-05-30 11:30 am-------29.98- 68.7 72.3----
2024-05-30 11:24 am-------29.98- 69.1 72.3----
2024-05-30 11:18 am-------29.98- 68.4 72.3----
2024-05-30 11:12 am-------29.98- 67.8 72.3----
2024-05-30 11:06 am-------29.98- 68.0 72.3----
2024-05-30 11:00 am-------29.98+0.00 67.6 72.3----
2024-05-30 10:54 am-------29.98- 67.3 72.3----
2024-05-30 10:48 am-------29.98- 67.1 72.3----
2024-05-30 10:42 am-------29.98- 67.3 72.3----
2024-05-30 10:36 am-------29.98- 67.5 72.3----
2024-05-30 10:30 am-------29.98- 67.1 72.3----
2024-05-30 10:24 am-------29.98- 68.0 72.3----
2024-05-30 10:18 am-------29.98- 67.6 72.3----
2024-05-30 10:12 am-------29.98- 67.3 72.3----
2024-05-30 10:06 am-------29.98- 66.7 72.3----
2024-05-30 10:00 am-------29.98+0.02 66.7 72.3----
2024-05-30 09:54 am-------29.99- 66.4 72.3----
2024-05-30 09:48 am-------29.99- 66.2 72.3----
2024-05-30 09:42 am-------29.99- 65.8 72.3----
2024-05-30 09:36 am-------29.99- 65.8 72.5----
2024-05-30 09:30 am-------29.98- 65.5 72.3----
2024-05-30 09:24 am-------29.99- 64.8 72.3----
2024-05-30 09:18 am-------29.99- 64.4 72.3----
2024-05-30 09:12 am-------29.99- 64.2 72.3----
2024-05-30 09:06 am-------29.99- 64.2 72.3----
2024-05-30 09:00 am-------29.99- 63.9 72.3----
2024-05-30 08:54 am-------29.99- 63.5 72.5----
2024-05-30 08:48 am-------29.99- 63.1 72.5----
2024-05-30 08:42 am-------29.99- 63.0 72.5----
2024-05-30 08:36 am-------29.99- 63.5 72.5----
2024-05-30 08:30 am-------29.99- 63.5 72.5----
2024-05-30 08:24 am-------29.98- 63.1 72.5----
2024-05-30 08:18 am-------29.98- 62.8 72.5----
2024-05-30 08:12 am-------29.98- 61.9 72.5----
2024-05-30 08:06 am-------29.98- 61.5 72.5----
2024-05-30 08:00 am-------29.98- 61.0 72.5----
2024-05-30 07:54 am-------29.98- 61.0 72.5----
2024-05-30 07:48 am-------29.98-- 72.5----
2024-05-30 07:42 am-------29.98-- 72.5----
2024-05-30 07:36 am-------29.98-- 72.5----
2024-05-30 07:30 am-------29.97- 60.6 72.5----
2024-05-30 07:24 am-------29.98- 60.6 72.5----
2024-05-30 07:18 am-------29.98- 60.4 72.5----
2024-05-30 07:12 am-------29.97- 60.4 72.5----
2024-05-30 07:06 am-------29.97- 59.5 72.5----
2024-05-30 07:00 am-------29.97- 59.4 72.5----
2024-05-30 06:54 am-------29.96- 59.2 72.5----
2024-05-30 06:48 am-------29.96- 58.6 72.5----
2024-05-30 06:42 am-------29.96- 58.6 72.5----
2024-05-30 06:36 am-------29.96- 58.8 72.5----
2024-05-30 06:30 am-------29.96- 59.4 72.5----
2024-05-30 06:24 am-------29.96- 59.9 72.5----
2024-05-30 06:18 am-------29.96- 60.8 72.7----
2024-05-30 06:12 am-------29.96- 61.3 72.7----
2024-05-30 06:06 am-------29.95- 61.2 72.5----
2024-05-30 06:00 am-------29.95+0.05 60.8 72.5----
2024-05-30 05:54 am-------29.94- 60.6 72.7----
2024-05-30 05:48 am-------29.94- 60.4 72.5----
2024-05-30 05:42 am-------29.94- 60.4 72.7----
2024-05-30 05:36 am-------29.94- 60.6 72.7----
2024-05-30 05:30 am-------29.93- 60.6 72.5----
2024-05-30 05:24 am-------29.93- 60.6 72.5----
2024-05-30 05:18 am-------29.93- 60.6 72.5----
2024-05-30 05:12 am-------29.93- 60.6 72.5----
2024-05-30 05:06 am-------29.93- 60.8 72.5----
2024-05-30 05:00 am-------29.92+0.02 60.8 72.5----
2024-05-30 04:54 am-------29.92- 60.8 72.5----
2024-05-30 04:48 am-------29.91-- 72.5----
2024-05-30 04:42 am-------29.91-- 72.5----
2024-05-30 04:36 am-------29.92-- 72.5----
2024-05-30 04:30 am-------29.91- 61.0 72.5----
2024-05-30 04:24 am-------29.91- 61.2 72.5----
2024-05-30 04:18 am-------29.91- 61.3 72.5----
2024-05-30 04:12 am-------29.91- 61.5 72.5----
2024-05-30 04:06 am-------29.91- 61.9 72.5----
2024-05-30 04:00 am-------29.91+0.00 61.9 72.5----
2024-05-30 03:54 am-------29.91- 62.1 72.5----
2024-05-30 03:48 am-------29.91-- 72.5----
2024-05-30 03:42 am-------29.91-- 72.5----
2024-05-30 03:36 am-------29.90-- 72.5----
2024-05-30 03:30 am-------29.90- 62.4 72.5----
2024-05-30 03:24 am-------29.90- 62.4 72.3----
2024-05-30 03:18 am-------29.90- 62.1 72.3----
2024-05-30 03:12 am-------29.90- 62.1 72.3----
2024-05-30 03:06 am-------29.90- 62.2 72.3----
2024-05-30 03:00 am-------29.90-0.02 62.4 72.3----
2024-05-30 02:54 am-------29.90- 62.6 72.3----
2024-05-30 02:48 am-------29.90- 62.8 72.3----
2024-05-30 02:42 am-------29.90- 62.6 72.3----
2024-05-30 02:36 am-------29.90- 62.6 72.3----
2024-05-30 02:30 am-------29.91- 63.0 72.3----
2024-05-30 02:24 am-------29.91- 63.0 72.3----
2024-05-30 02:18 am-------29.90- 63.1 72.3----
2024-05-30 02:12 am-------29.90- 63.1 72.3----
2024-05-30 02:06 am-------29.90- 63.0 72.3----
2024-05-30 02:00 am-------29.90-0.01 63.1 72.3----
2024-05-30 01:54 am-------29.91- 63.3 72.3----
2024-05-30 01:48 am-------29.90-- 72.3----
2024-05-30 01:42 am-------29.90-- 72.3----
2024-05-30 01:36 am-------29.91-- 72.3----
2024-05-30 01:30 am-------29.91- 63.5 72.3----
2024-05-30 01:24 am-------29.91- 63.1 72.3----
2024-05-30 01:18 am-------29.91- 63.0 72.3----
2024-05-30 01:12 am-------29.91- 62.8 72.3----
2024-05-30 01:06 am-------29.91- 63.1 72.3----
2024-05-30 01:00 am-------29.91-0.02 63.3 72.3----
2024-05-30 12:54 am-------29.91- 63.5 72.3----
2024-05-30 12:48 am-------29.92-- 72.3----
2024-05-30 12:42 am-------29.92-- 72.3----
2024-05-30 12:36 am-------29.92-- 72.3----
2024-05-30 12:30 am-------29.92- 63.1 72.3----
2024-05-30 12:24 am-------29.92- 63.3 72.3----
2024-05-30 12:18 am-------29.92- 63.3 72.3----
2024-05-30 12:12 am-------29.92- 63.5 72.3----
2024-05-30 12:06 am-------29.92- 63.5 72.3----
2024-05-30 12:00 am-------29.92+0.00 63.7 72.3----
2024-05-29 11:54 pm-------29.92- 63.9 72.3----
2024-05-29 11:48 pm-------29.91- 64.0 72.3----
2024-05-29 11:42 pm-------29.91- 64.4 72.5----
2024-05-29 11:36 pm-------29.90- 64.4 72.5----
2024-05-29 11:30 pm-------29.90- 64.4 72.5----
2024-05-29 11:24 pm-------29.91- 64.0 72.5----
2024-05-29 11:18 pm-------29.91- 64.0 72.5----
2024-05-29 11:12 pm-------29.91- 64.2 72.5----
2024-05-29 11:06 pm-------29.91- 64.4 72.5----
2024-05-29 11:00 pm-------29.91+0.00 64.0 72.5----
2024-05-29 10:54 pm-------29.91- 64.0 72.5----
2024-05-29 10:48 pm-------29.91- 64.4 72.5----
2024-05-29 10:42 pm-------29.91- 64.6 72.5----
2024-05-29 10:36 pm-------29.91- 64.6 72.5----
2024-05-29 10:30 pm-------29.91- 64.4 72.5----
2024-05-29 10:24 pm-------29.92- 63.9 72.5----
2024-05-29 10:18 pm-------29.92- 63.7 72.5----
2024-05-29 10:12 pm-------29.93- 63.7 72.5----
2024-05-29 10:06 pm-------29.93- 63.7 72.5----
2024-05-29 10:00 pm-------29.93+0.03 63.9 72.5----
2024-05-29 09:54 pm-------29.93- 64.0 72.7----
2024-05-29 09:48 pm-------29.93- 64.2 72.7----
2024-05-29 09:42 pm-------29.93- 64.2 72.7----
2024-05-29 09:36 pm-------29.93- 64.4 72.7----
2024-05-29 09:30 pm-------29.93- 64.6 72.7----
2024-05-29 09:24 pm-------29.93- 64.6 72.7----
2024-05-29 09:18 pm-------29.92- 64.4 72.7----
2024-05-29 09:12 pm-------29.92- 64.4 72.7----
2024-05-29 09:06 pm-------29.93- 64.6 72.7----
2024-05-29 09:00 pm-------29.92+0.06 64.8 72.7----
2024-05-29 08:54 pm-------29.92- 65.1 72.7----
2024-05-29 08:48 pm-------29.92- 65.1 72.7----
2024-05-29 08:42 pm-------29.92- 65.1 72.7----
2024-05-29 08:36 pm-------29.92- 65.3 72.7----
2024-05-29 08:30 pm-------29.92- 65.3 72.7----
2024-05-29 08:24 pm-------29.91- 65.5 72.7----
2024-05-29 08:18 pm-------29.91- 65.3 72.7----
2024-05-29 08:12 pm-------29.91- 65.5 72.7----
2024-05-29 08:06 pm-------29.91- 65.7 72.7----
2024-05-29 08:00 pm-------29.91+0.05 65.7 72.7----
2024-05-29 07:54 pm-------29.91- 65.8 72.7----
2024-05-29 07:48 pm-------29.91-- 72.7----
2024-05-29 07:42 pm-------29.89-- 72.7----
2024-05-29 07:36 pm-------29.89-- 72.7----
2024-05-29 07:30 pm-------29.89- 65.7 72.7----
2024-05-29 07:24 pm-------29.90- 66.0 72.7----
2024-05-29 07:18 pm-------29.90- 66.4 72.7----
2024-05-29 07:12 pm-------29.90- 66.9 72.7----
2024-05-29 07:06 pm-------29.90- 68.5 72.7----
2024-05-29 07:00 pm-------29.90+0.03 70.7 72.7----
2024-05-29 06:54 pm-------29.88- 74.5 72.7----
2024-05-29 06:48 pm-------29.87- 75.4 72.7----
2024-05-29 06:42 pm-------29.87- 75.6 72.7----
2024-05-29 06:36 pm-------29.87- 75.9 72.7----
2024-05-29 06:30 pm-------29.86- 76.3 72.7----
2024-05-29 06:24 pm-------29.86- 76.5 72.7----
2024-05-29 06:18 pm-------29.86- 76.5 72.7----
2024-05-29 06:12 pm-------29.86- 76.6 72.7----
2024-05-29 06:06 pm-------29.86- 77.0 72.7----
2024-05-29 06:00 pm-------29.86-0.02 77.7 72.7----
2024-05-29 05:54 pm-------29.86- 78.3 72.7----
2024-05-29 05:48 pm-------29.86- 78.6 72.7----
2024-05-29 05:42 pm-------29.86- 78.8 72.7----
2024-05-29 05:36 pm-------29.86- 78.4 72.7----
2024-05-29 05:30 pm-------29.86- 78.6 72.7----
2024-05-29 05:24 pm-------29.86- 78.6 72.7----
2024-05-29 05:18 pm-------29.86- 78.6 72.7----
2024-05-29 05:12 pm-------29.86- 79.0 72.7----
2024-05-29 05:06 pm-------29.86- 79.0 72.7----
2024-05-29 05:00 pm-------29.86-0.04 79.2 72.7----
2024-05-29 04:54 pm-------29.86- 79.9 72.7----